FW2918 Weather Reports


time (UTC)temp
C
wind
direction
speed
KPH
gust
KPH
rain 1hr
cm
rain 24hr
cm
rain mn
cm
humidity
%
barometer
mb
20260508145306 14 84 4.8 14.5 0.00 0.03 0.03 37 1021.2
20260508144757 14 80 8.0 16.1 0.00 0.03 0.03 36 1021.0
20260508144253 14 80 6.4 22.5 0.00 0.03 0.03 35 1021.2
20260508143746 14 84 6.4 17.7 0.00 0.03 0.03 37 1021.2
20260508143238 14 63 6.4 16.1 0.00 0.03 0.03 35 1021.1
20260508142733 14 83 4.8 16.1 0.00 0.03 0.03 38 1021.2
20260508142226 14 62 6.4 19.3 0.00 0.03 0.03 34 1021.1
20260508141941 14 98 8.0 19.3 0.00 0.03 0.03 34 1021.1
20260508141214 15 84 6.4 19.3 0.00 0.03 0.03 34 1021.1
20260508140709 15 90 4.8 19.3 0.00 0.03 0.03 35 1021.3
20260508140202 15 68 4.8 16.1 0.00 0.03 0.03 37 1021.4
20260508135658 15 64 6.4 22.5 0.00 0.03 0.03 37 1021.3
20260508135150 15 61 4.8 22.5 0.00 0.03 0.03 35 1021.3
20260508135131 15 85 4.8 16.1 0.00 0.03 0.03 37 1021.4
20260508134138 15 338 6.4 20.9 0.00 0.03 0.03 37 1021.4
20260508133857 15 65 6.4 20.9 0.00 0.03 0.03 36 1021.5
20260508133126 15 46 6.4 19.3 0.00 0.03 0.03 36 1021.4
20260508132621 15 339 6.4 16.1 0.00 0.03 0.03 36 1021.5
20260508132115 15 327 6.4 16.1 0.00 0.03 0.03 37 1021.5
20260508131610 16 91 6.4 17.7 0.00 0.03 0.03 35 1021.3
20260508131102 16 329 9.7 19.3 0.00 0.03 0.03 38 1021.1
20260508130557 16 82 9.7 27.4 0.00 0.03 0.03 37 1021.0
20260508130100 16 42 8.0 27.4 0.00 0.03 0.03 38 1021.1
20260508125546 16 84 8.0 22.5 0.00 0.03 0.03 36 1021.2
20260508125038 16 101 8.0 22.5 0.00 0.03 0.03 34 1021.3
20260508125012 16 57 6.4 20.9 0.00 0.03 0.03 37 1021.1
20260508124034 16 112 8.0 20.9 0.00 0.03 0.03 43 1021.4
20260508123524 16 53 6.4 20.9 0.00 0.03 0.03 38 1021.4
20260508123033 16 57 6.4 24.1 0.00 0.03 0.03 37 1021.2
20260508123003 16 102 8.0 24.1 0.00 0.03 0.03 41 1021.2
20260508122032 16 57 8.0 20.9 0.00 0.03 0.03 37 1021.1
20260508121523 15 118 9.7 35.4 0.00 0.03 0.03 39 1021.0
20260508121029 15 59 9.7 35.4 0.00 0.03 0.03 38 1021.0
20260508120522 15 72 6.4 20.9 0.00 0.03 0.03 40 1021.0
20260508120033 15 92 6.4 19.3 0.00 0.03 0.03 43 1021.0
20260508115521 15 67 4.8 14.5 0.00 0.03 0.03 42 1021.1
20260508115030 15 336 6.4 19.3 0.00 0.03 0.03 41 1021.1
20260508114521 15 32 6.4 19.3 0.00 0.03 0.03 39 1021.0
20260508114254 16 69 6.4 24.1 0.00 0.03 0.03 43 1021.0
20260508113959 16 66 8.0 24.1 0.00 0.03 0.03 45 1021.1
20260508113029 16 26 6.4 16.1 0.00 0.03 0.03 48 1021.2
20260508112521 15 284 6.4 20.9 0.00 0.03 0.03 42 1021.2
20260508112030 15 319 8.0 20.9 0.00 0.03 0.03 40 1021.1
20260508111519 15 78 8.0 20.9 0.00 0.03 0.03 40 1021.2
20260508111028 15 76 6.4 20.9 0.00 0.03 0.03 42 1021.3
20260508110533 15 90 8.0 22.5 0.00 0.03 0.03 40 1021.3
20260508110012 15 71 9.7 27.4 0.00 0.03 0.03 39 1021.5
20260508105512 15 302 6.4 27.4 0.00 0.03 0.03 41 1021.6
20260508105014 15 69 4.8 16.1 0.00 0.03 0.03 40 1021.4
20260508104512 15 113 8.0 20.9 0.00 0.03 0.03 44 1021.4
20260508104010 15 92 6.4 20.9 0.00 0.03 0.03 44 1021.4
20260508103511 15 57 8.0 17.7 0.00 0.03 0.03 44 1021.5
20260508103003 15 73 6.4 20.9 0.00 0.03 0.03 40 1021.6
20260508102458 15 54 4.8 19.3 0.00 0.03 0.03 46 1021.5
20260508101951 15 61 4.8 19.3 0.00 0.03 0.03 42 1021.6
20260508101712 15 80 4.8 19.3 0.00 0.03 0.03 42 1021.6
20260508101213 15 81 6.4 22.5 0.00 0.03 0.03 46 1021.6
20260508100451 15 47 8.0 24.1 0.00 0.03 0.03 41 1021.8
20260508095949 15 71 8.0 25.7 0.00 0.03 0.03 47 1021.7
20260508095448 15 66 8.0 25.7 0.00 0.03 0.03 43 1021.7
20260508094948 14 99 8.0 20.9 0.00 0.03 0.03 43 1021.7
20260508094449 15 326 9.7 25.7 0.00 0.03 0.03 45 1021.6
20260508093944 14 105 9.7 27.4 0.00 0.03 0.03 42 1021.6
20260508093444 14 106 8.0 27.4 0.00 0.03 0.03 43 1021.6
20260508093430 14 74 6.4 20.9 0.00 0.03 0.03 46 1021.6
20260508092442 14 96 6.4 24.1 0.00 0.03 0.03 45 1021.7
20260508091942 13 44 8.0 25.7 0.00 0.03 0.03 46 1021.6
20260508091442 13 98 8.0 25.7 0.00 0.03 0.03 45 1021.8
20260508090941 13 92 6.4 16.1 0.00 0.03 0.03 46 1021.6
20260508090441 13 49 6.4 22.5 0.00 0.03 0.03 47 1021.7
20260508085940 13 56 6.4 22.5 0.00 0.03 0.03 48 1021.8
20260508085442 13 76 6.4 22.5 0.00 0.03 0.03 49 1021.7
20260508084940 13 52 8.0 22.5 0.00 0.03 0.03 49 1021.7
20260508084438 13 73 9.7 25.7 0.00 0.03 0.03 49 1021.9
20260508083937 13 60 8.0 25.7 0.00 0.03 0.03 46 1021.7
20260508083437 13 92 8.0 24.1 0.00 0.03 0.03 46 1021.8
20260508082936 12 97 6.4 24.1 0.00 0.03 0.03 48 1021.8
20260508082436 12 338 6.4 24.1 0.00 0.03 0.03 47 1021.7
20260508081935 12 73 4.8 17.7 0.00 0.03 0.03 49 1021.7
20260508081652 12 67 6.4 16.1 0.00 0.03 0.03 51 1021.8
20260508080925 12 62 6.4 22.5 0.00 0.03 0.03 49 1021.7
20260508080423 12 138 6.4 22.5 0.00 0.03 0.03 46 1021.9
20260508075921 12 72 6.4 16.1 0.00 0.03 0.03 53 1022.0
20260508075422 12 106 6.4 22.5 0.00 0.03 0.03 49 1022.0
20260508074920 12 103 4.8 22.5 0.00 0.03 0.03 54 1021.7
20260508074904 12 345 6.4 17.7 0.00 0.03 0.03 53 1022.0
20260508073919 11 49 8.0 17.7 0.00 0.03 0.03 50 1022.0
20260508073644 11 53 6.4 19.3 0.00 0.03 0.03 52 1022.1
20260508072920 11 95 6.4 19.3 0.00 0.03 0.03 50 1021.9
20260508072421 11 132 6.4 25.7 0.00 0.03 0.03 51 1022.0
20260508071920 11 65 4.8 25.7 0.00 0.03 0.03 51 1022.0
20260508071419 11 94 6.4 17.7 0.00 0.03 0.03 55 1022.0
20260508070918 11 136 6.4 17.7 0.00 0.03 0.03 54 1022.0
20260508070643 10 96 4.8 12.9 0.00 0.03 0.03 58 1021.9
20260508065918 10 82 4.8 14.5 0.00 0.03 0.03 55 1022.0
20260508065418 10 65 4.8 17.7 0.00 0.03 0.03 58 1021.9
20260508064929 10 69 6.4 19.3 0.00 0.03 0.03 59 1021.9
20260508064414 10 65 4.8 19.3 0.00 0.03 0.03 60 1021.8
20260508063912 10 89 4.8 17.7 0.00 0.03 0.03 61 1021.8
20260508063413 9 163 4.8 17.7 0.00 0.03 0.03 66 1021.8
20260508063132 9 36 4.8 14.5 0.00 0.03 0.03 65 1021.8
20260508062414 8 331 4.8 14.5 0.00 0.03 0.03 66 1021.7
20260508062133 8 104 4.8 14.5 0.00 0.03 0.03 67 1021.8
20260508061412 8 82 4.8 14.5 0.00 0.03 0.03 68 1021.8
20260508060913 8 90 4.8 14.5 0.00 0.03 0.03 68 1021.6
20260508060412 8 88 4.8 14.5 0.00 0.05 0.03 71 1021.5
20260508055912 8 88 3.2 14.5 0.00 0.05 0.03 69 1021.6
20260508055412 8 320 3.2 14.5 0.00 0.05 0.03 69 1021.5
20260508055136 7 91 4.8 14.5 0.00 0.05 0.03 72 1021.5
20260508054412 7 86 4.8 14.5 0.00 0.05 0.03 70 1021.5
20260508053911 7 79 3.2 14.5 0.00 0.05 0.03 75 1021.5
20260508053411 7 90 4.8 17.7 0.00 0.05 0.03 74 1021.6
20260508052909 7 38 3.2 17.7 0.00 0.05 0.03 78 1021.5
20260508052406 7 59 1.6 11.3 0.00 0.05 0.03 81 1021.6
20260508051906 6 94 1.6 11.3 0.00 0.05 0.03 83 1021.6
20260508051418 6 344 1.6 6.4 0.00 0.08 0.03 87 1021.3
20260508050904 5 339 1.6 8.0 0.00 0.08 0.03 89 1021.3
20260508050405 5 339 3.2 8.0 0.00 0.08 0.03 90 1021.4
20260508045904 5 333 1.6 6.4 0.00 0.08 0.03 91 1021.3
20260508045403 5 325 1.6 6.4 0.00 0.08 0.03 91 1021.2
20260508044918 5 311 1.6 6.4 0.00 0.08 0.03 92 1021.1
20260508044628 5 71 1.6 8.0 0.00 0.08 0.03 93 1021.1
20260508043904 5 326 1.6 8.0 0.00 0.08 0.03 94 1021.1
20260508043624 4 94 0.0 0.0 0.00 0.08 0.03 95 1021.0
20260508042904 4 95 0.0 1.6 0.00 0.08 0.03 96 1020.9
20260508042401 3 95 0.0 3.2 0.00 0.08 0.03 96 1020.8
20260508041857 3 95 0.0 3.2 0.00 0.08 0.03 97 1020.8
20260508041358 3 96 0.0 0.0 0.00 0.08 0.03 97 1020.8
20260508040858 3 96 0.0 0.0 0.00 0.08 0.03 97 1020.7
20260508040618 2 96 0.0 0.0 0.03 0.08 0.03 97 1020.6
20260508035858 2 96 0.0 1.6 0.03 0.08 0.03 97 1020.6
20260508035358 2 96 0.0 1.6 0.03 0.08 0.03 97 1020.5
20260508034859 2 96 0.0 3.2 0.03 0.08 0.03 97 1020.6
20260508034350 2 96 0.0 3.2 0.03 0.08 0.03 97 1020.5
20260508033851 2 98 0.0 3.2 0.03 0.08 0.03 98 1020.6
20260508033352 2 98 0.0 3.2 0.03 0.08 0.03 98 1020.4
20260508032852 1 98 0.0 3.2 0.03 0.08 0.03 97 1020.4
20260508032351 1 98 0.0 1.6 0.03 0.08 0.03 97 1020.4
20260508031852 1 85 0.0 0.0 0.03 0.08 0.03 97 1020.3
20260508031351 1 85 0.0 0.0 0.03 0.08 0.03 97 1020.3
20260508030847 1 85 0.0 1.6 0.03 0.08 0.03 97 1020.2
20260508030827 1 85 0.0 1.6 0.00 0.05 0.00 97 1020.1
20260508025845 1 85 0.0 1.6 0.00 0.05 0.00 97 1020.0
20260508025346 1 85 0.0 0.0 0.00 0.05 0.00 97 1020.0
20260508025051 1 85 0.0 0.0 0.00 0.05 0.00 97 1019.9
20260508024930 1 85 0.0 0.0 0.00 0.05 0.00 97 1020.1
20260508023842 1 85 0.0 0.0 0.00 0.05 0.00 97 1019.9
20260508023336 1 85 0.0 0.0 0.00 0.05 0.00 97 1019.8
20260508023053 0 85 0.0 0.0 0.00 0.05 0.00 97 1019.9
20260508022323 0 85 0.0 0.0 0.00 0.08 0.00 97 1019.8
20260508021823 1 85 0.0 0.0 0.00 0.08 0.00 97 1019.7
20260508021320 0 85 0.0 0.0 0.00 0.08 0.00 97 1019.8
20260508020819 1 85 0.0 0.0 0.00 0.08 0.00 97 1019.7
20260508020321 1 85 0.0 1.6 0.00 0.08 0.00 97 1019.6
20260508015817 1 85 0.0 1.6 0.00 0.08 0.00 97 1019.7
20260508015315 1 85 0.0 1.6 0.00 0.08 0.00 97 1019.7
20260508014813 1 85 0.0 1.6 0.00 0.08 0.00 97 1019.6
20260508014536 1 85 0.0 0.0 0.00 0.08 0.00 97 1019.5
20260508013811 1 85 0.0 0.0 0.00 0.08 0.00 97 1019.5
20260508013309 1 85 0.0 3.2 0.00 0.08 0.00 97 1019.4
20260508012809 1 85 0.0 3.2 0.00 0.08 0.00 97 1019.4
20260508012308 1 85 0.0 4.8 0.00 0.08 0.00 97 1019.4
20260508011807 1 85 0.0 4.8 0.00 0.08 0.00 97 1019.5
20260508011307 0 85 0.0 3.2 0.00 0.08 0.00 97 1019.4
20260508010808 0 85 0.0 3.2 0.00 0.08 0.00 97 1019.4
20260508010305 1 85 0.0 0.0 0.00 0.08 0.00 97 1019.4
20260508005805 1 85 0.0 0.0 0.00 0.08 0.00 97 1019.4
20260508005306 1 85 0.0 1.6 0.00 0.08 0.00 97 1019.4
20260508004801 0 85 0.0 1.6 0.00 0.08 0.00 97 1019.4
20260508004301 0 85 0.0 3.2 0.00 0.08 0.00 97 1019.2
20260508003757 0 85 0.0 3.2 0.00 0.08 0.00 97 1019.3
20260508003517 1 86 0.0 0.0 0.00 0.08 0.00 97 1019.4
20260508002757 1 86 0.0 0.0 0.00 0.08 0.00 97 1019.3
20260508002254 1 86 0.0 0.0 0.00 0.08 0.00 97 1019.2
20260508001757 1 86 0.0 0.0 0.00 0.08 0.00 97 1019.2
20260508001253 1 86 0.0 0.0 0.00 0.08 0.00 96 1019.0
20260508000752 1 86 0.0 0.0 0.00 0.08 0.00 97 1019.0
20260508000251 1 86 0.0 0.0 0.00 0.08 0.00 97 1018.9
20260507235752 1 86 0.0 0.0 0.00 0.08 0.00 97 1018.9
20260507235251 1 86 0.0 0.0 0.00 0.08 0.00 97 1018.8
20260507234751 1 86 0.0 0.0 0.00 0.08 0.00 97 1018.7
20260507234250 1 86 0.0 0.0 0.00 0.08 0.00 96 1018.6
20260507233752 1 86 0.0 0.0 0.00 0.08 0.00 96 1018.3
20260507233251 1 86 0.0 0.0 0.00 0.08 0.00 96 1018.4
20260507232749 1 86 0.0 0.0 0.00 0.08 0.00 96 1018.4
20260507232250 1 86 0.0 0.0 0.00 0.08 0.00 96 1018.3
20260507231749 1 86 0.0 0.0 0.00 0.08 0.00 96 1018.2
20260507231247 1 86 0.0 0.0 0.00 0.08 0.00 96 1018.1
20260507230745 1 86 0.0 0.0 0.00 0.08 0.00 96 1018.0
20260507230246 1 86 0.0 0.0 0.00 0.08 0.00 96 1017.8
20260507225744 1 86 0.0 0.0 0.00 0.08 0.00 96 1017.9
20260507225238 1 86 0.0 0.0 0.00 0.08 0.00 96 1017.8
20260507224739 1 86 0.0 0.0 0.00 0.08 0.00 96 1017.8
20260507224457 1 86 0.0 0.0 0.00 0.08 0.00 96 1017.9
20260507223734 1 86 0.0 0.0 0.00 0.08 0.00 96 1017.9
20260507223457 1 86 0.0 0.0 0.00 0.08 0.00 96 1017.9
20260507222734 1 86 0.0 0.0 0.00 0.08 0.00 96 1017.9
20260507222230 1 86 0.0 0.0 0.00 0.08 0.00 96 1017.8
20260507221729 1 86 0.0 0.0 0.00 0.08 0.00 96 1017.8
20260507221228 1 86 0.0 0.0 0.00 0.08 0.00 96 1017.8
20260507220727 2 86 0.0 0.0 0.00 0.08 0.00 96 1017.8
20260507220445 1 86 0.0 0.0 0.00 0.08 0.00 96 1017.8
20260507215724 2 86 0.0 0.0 0.00 0.08 0.00 96 1017.8
20260507215223 2 86 0.0 0.0 0.00 0.08 0.00 96 1017.5
20260507214723 2 86 0.0 0.0 0.00 0.08 0.00 96 1017.5
20260507214443 2 86 0.0 0.0 0.00 0.08 0.00 96 1017.7
20260507213943 2 86 0.0 0.0 0.00 0.08 0.00 96 1017.7
20260507213220 2 86 0.0 0.0 0.00 0.08 0.00 96 1017.5
20260507212721 2 86 0.0 0.0 0.00 0.08 0.00 96 1017.7
20260507212438 2 86 0.0 0.0 0.00 0.08 0.00 95 1017.5
20260507211718 2 86 0.0 0.0 0.00 0.08 0.00 96 1017.4
20260507211220 2 86 0.0 0.0 0.00 0.08 0.00 95 1017.3
20260507210719 2 86 0.0 0.0 0.00 0.08 0.00 96 1017.3
20260507210218 2 86 0.0 0.0 0.00 0.08 0.00 95 1017.1
20260507205717 2 86 0.0 0.0 0.00 0.08 0.08 95 1017.0
20260507205219 2 86 0.0 0.0 0.00 0.08 0.08 94 1017.2
20260507204717 2 86 0.0 0.0 0.00 0.08 0.08 95 1016.9
20260507204218 2 86 0.0 0.0 0.00 0.08 0.08 95 1016.9
20260507203716 2 86 0.0 0.0 0.00 0.08 0.08 95 1016.8
20260507203215 2 86 0.0 0.0 0.00 0.08 0.08 94 1016.7
20260507202714 2 86 0.0 0.0 0.00 0.08 0.08 94 1016.6
20260507202214 3 86 0.0 0.0 0.00 0.08 0.08 94 1016.7
20260507201726 3 86 0.0 0.0 0.00 0.08 0.08 94 1016.7
20260507201209 3 86 0.0 0.0 0.00 0.08 0.08 94 1016.5
20260507200708 3 86 0.0 0.0 0.00 0.08 0.08 94 1016.5
20260507200205 3 86 0.0 0.0 0.00 0.08 0.08 93 1016.4
20260507195925 3 86 0.0 0.0 0.00 0.08 0.08 94 1016.3
20260507195206 4 86 0.0 0.0 0.00 0.08 0.08 94 1016.2
20260507194708 4 86 0.0 0.0 0.00 0.08 0.08 94 1016.2
20260507194206 3 86 0.0 0.0 0.00 0.08 0.08 93 1016.1
20260507193924 3 86 0.0 0.0 0.00 0.10 0.08 93 1016.1
20260507193201 3 86 0.0 0.0 0.00 0.10 0.08 93 1016.0
20260507192703 4 86 0.0 0.0 0.00 0.10 0.08 92 1015.8
20260507192427 4 86 0.0 0.0 0.00 0.10 0.08 92 1015.8
20260507191659 4 86 0.0 0.0 0.00 0.10 0.08 92 1015.8
20260507191201 4 86 0.0 0.0 0.00 0.10 0.08 91 1015.8
20260507190659 5 86 0.0 0.0 0.00 0.10 0.08 89 1015.7
20260507190157 5 86 0.0 0.0 0.00 0.10 0.08 89 1015.7
20260507185655 5 86 0.0 0.0 0.00 0.13 0.08 89 1015.7
20260507185158 5 86 0.0 0.0 0.00 0.13 0.08 89 1015.6
20260507184651 5 86 0.0 0.0 0.00 0.13 0.08 89 1015.6
20260507184152 5 86 0.0 0.0 0.00 0.15 0.08 87 1015.6
20260507183652 6 86 0.0 0.0 0.00 0.15 0.08 87 1015.5
20260507183151 6 86 0.0 0.0 0.00 0.15 0.08 86 1015.2
20260507182920 6 86 0.0 0.0 0.00 0.15 0.08 86 1015.0
20260507182151 7 86 0.0 0.0 0.00 0.15 0.08 85 1015.2
20260507181648 7 86 0.0 0.0 0.00 0.15 0.08 84 1015.1
20260507181143 7 86 0.0 0.0 0.00 0.18 0.08 83 1015.1
20260507180639 7 86 0.0 0.0 0.00 0.18 0.08 82 1014.9
20260507180139 8 86 0.0 0.0 0.00 0.18 0.08 82 1014.9
20260507175635 8 86 0.0 0.0 0.00 0.20 0.08 82 1014.8
20260507175352 8 86 0.0 0.0 0.00 0.23 0.08 81 1014.9
20260507174633 8 86 0.0 1.6 0.00 0.23 0.08 80 1014.7
20260507174131 8 86 0.0 3.2 0.00 0.25 0.08 80 1014.8
20260507173631 8 86 0.0 4.8 0.00 0.28 0.08 80 1014.7
20260507173131 9 81 1.6 6.4 0.00 0.30 0.08 79 1014.7
20260507172633 9 82 3.2 11.3 0.00 0.30 0.08 79 1014.7
20260507172129 9 83 3.2 11.3 0.00 0.33 0.08 78 1014.7
20260507171629 9 88 1.6 12.9 0.00 0.33 0.08 79 1014.7
20260507171130 9 89 1.6 12.9 0.00 0.36 0.08 79 1014.5
20260507170629 9 90 1.6 9.7 0.00 0.36 0.08 79 1014.6
20260507170400 9 93 1.6 9.7 0.00 0.38 0.08 80 1014.7
20260507165629 9 93 3.2 9.7 0.00 0.38 0.08 79 1014.4
20260507165125 10 75 3.2 9.7 0.00 0.41 0.08 78 1014.4
20260507164623 10 57 3.2 9.7 0.00 0.43 0.08 78 1014.3
20260507164123 10 329 4.8 14.5 0.00 0.43 0.08 78 1014.4
20260507163849 10 92 3.2 14.5 0.00 0.43 0.08 77 1014.3
20260507163119 10 91 1.6 6.4 0.00 0.46 0.08 80 1014.2
20260507162619 9 101 3.2 9.7 0.00 0.51 0.08 80 1014.1
20260507162121 9 64 4.8 11.3 0.00 0.51 0.08 80 1014.0
20260507161837 9 84 3.2 11.3 0.00 0.51 0.08 79 1013.9
20260507161119 9 69 3.2 9.7 0.00 0.53 0.08 80 1014.0
20260507160614 9 85 3.2 11.3 0.00 0.56 0.08 79 1013.9
20260507160113 9 51 3.2 11.3 0.00 0.56 0.08 79 1013.9
20260507155610 9 323 4.8 11.3 0.00 0.58 0.08 79 1013.8
20260507155109 9 74 4.8 12.9 0.00 0.58 0.08 79 1013.9
20260507154611 9 62 3.2 12.9 0.00 0.61 0.08 79 1013.8
20260507154109 9 80 3.2 14.5 0.00 0.61 0.08 80 1013.7
20260507153609 9 309 3.2 14.5 0.00 0.61 0.08 81 1013.6
20260507153109 9 277 4.8 11.3 0.00 0.61 0.08 81 1013.5
20260507152609 9 66 4.8 17.7 0.00 0.61 0.08 80 1013.7
20260507152106 9 333 3.2 17.7 0.00 0.61 0.08 81 1013.5
20260507151605 9 71 3.2 14.5 0.00 0.61 0.08 81 1013.7
20260507151107 9 69 3.2 14.5 0.00 0.61 0.08 80 1013.6
20260507150612 9 5 3.2 9.7 0.00 0.61 0.08 80 1013.6
20260507150605 9 28 3.2 9.7 0.00 0.61 0.08 80 1013.6
20260507145829 9 51 3.2 9.7 0.00 0.61 0.08 80 1013.5